McConnell AFB, KS

4:41 PM CST on November 15, 2019 (GMT -0600)
McConnell Air Force Base

Weather History for KIAB - October, 2019

Change the Weather History Date:

Wednesday, October 23, 2019

  Actual Average Record
Temperature  
Mean Temperature 56 °F -  
Max Temperature 70 °F 65 °F 87 °F (2012)
Min Temperature 43 °F 46 °F 30 °F (2006)
Degree Days  
Heating Degree Days 9    
Growing Degree Days 6 (Base 50)    
Moisture  
Dew Point 33 °F    
Average Humidity 45    
Maximum Humidity 61    
Minimum Humidity 26    
Precipitation  
Precipitation 0.00 in - - ()
Sea Level Pressure  
Sea Level Pressure 29.97 in    
Wind  
Wind Speed 12 mph (SSE)    
Max Wind Speed 16 mph    
Max Gust Speed -    
Visibility 10 miles    
Events      
Averages and records for this station are not official NWS values.
T = Trace of Precipitation, MM = Missing Value Source: NWS Daily Summary

Daily Weather History Graph

Daily Weather History Graph

Search for Another Location

Airport or City:

Astronomy

Oct. 23, 2019 Rise Set
Actual Time 7:44 AM CDT 6:41 PM CDT
Civil Twilight 7:18 AM CDT 7:08 PM CDT
Nautical Twilight 6:47 AM CDT 7:38 PM CDT
Astronomical Twilight 6:17 AM CDT 8:08 PM CDT
Moon 2:13 AM CDT (10/23) 4:25 PM CDT (10/23)
Length of Visible Light 11h 49m
Length of Day
10h 56m
Waning Crescent, 26% of the Moon is Illuminated
Oct 23
Waning Crescent
Oct 27
New
Nov 4
First Quarter
Nov 12
Full
Nov 19
Last Quarter

Hourly Weather History & Observations

Time (CDT) Temp. Windchill Dew Point Humidity Pressure Visibility Wind Dir Wind Speed Gust Speed Precip Events Conditions
12:56 AM 46.2 °F 40.5 °F 31.8 °F 57% 29.94 in 10.0 mi SSE 12.7 mph - N/A   Clear
1:56 AM 50.0 °F - 31.1 °F 48% 29.91 in 10.0 mi SSE 11.5 mph - N/A   Mostly Cloudy
2:56 AM 49.1 °F - 30.7 °F 49% 29.93 in 10.0 mi South 10.4 mph - N/A   Overcast
3:56 AM 52.7 °F - 26.4 °F 36% 29.92 in 10.0 mi South 16.1 mph - N/A   Partly Cloudy
4:56 AM 49.8 °F - 28.2 °F 43% 29.91 in 10.0 mi SSE 15.0 mph - N/A   Overcast
5:56 AM 47.5 °F - 29.8 °F 50% 29.91 in 10.0 mi SSE 11.5 mph - N/A   Clear
6:56 AM 43.3 °F 37.7 °F 30.4 °F 60% 29.92 in 10.0 mi SSE 10.4 mph - N/A   Clear
7:56 AM 44.4 °F 39.0 °F 30.9 °F 59% 29.92 in 10.0 mi SE 10.4 mph - N/A   Clear
9:57 AM - - - N/A% - - North - - N/A   Unknown
11:56 AM 62.6 °F - 34.5 °F 35% 29.94 in 10.0 mi South 16.1 mph - N/A   Clear
1:56 PM 66.7 °F - 34.3 °F 30% 29.92 in 10.0 mi SSW 5.8 mph - N/A   Clear
2:56 PM 69.4 °F - 33.1 °F 26% 29.91 in 10.0 mi WNW 11.5 mph - N/A   Partly Cloudy
3:56 PM 68.7 °F - 36.9 °F 31% 29.93 in 10.0 mi NW 12.7 mph - N/A   Clear
4:56 PM 66.2 °F - 37.0 °F 34% 29.95 in 10.0 mi NW 12.7 mph - N/A   Scattered Clouds
5:56 PM 63.7 °F - 36.1 °F 36% 29.99 in 10.0 mi North 10.4 mph - N/A   Clear
6:56 PM 59.4 °F - 36.3 °F 42% 30.02 in 10.0 mi North 11.5 mph - N/A   Clear
8:56 PM 53.4 °F - 36.3 °F 52% 30.07 in 10.0 mi NNW 8.1 mph - N/A   Clear
9:56 PM 52.3 °F - 36.7 °F 55% 30.10 in 10.0 mi North 6.9 mph - N/A   Clear
10:56 PM 52.7 °F - 36.0 °F 53% 30.11 in 10.0 mi NE 6.9 mph - N/A   Haze
11:56 PM 48.9 °F - 36.1 °F 61% 30.11 in 10.0 mi NNE 10.4 mph - N/A   Clear